OPS 4682 DEB, 38401

Orbit data source: Space-Track

OPS 4682 DEB, 38401 is space debris in LEO originally from a launch on Sat, 03 Apr 1965 UTC launched from the Air Force Western Test Range (AFWTR). Debris objects in space refer to the collection of defunct objects orbiting the Earth. Examples of debris include non-operational satellites, rocket bodies, and fragments generated from explosions, collisions, or faulty payload assembly.

Loading next visibility...
Identifier
38401, 1965-027DE
Orbit
LEO
Country
Flag of USUS
Related business
Manufacturer
Unknown
Mission
Spacecraft
Bus & Motor
Unknown
Mass
Unknown
Launch date (UTC)
1965-04-03 (61 years ago)
Launch vehicle
Unknown
Launch site
Air Force Western Test Range (AFWTR)
Object type
Payload
Rocket body
Debris
Shape & HBR
Unknown shape, 0.1 m
Radar Cross Section
Medium (>0.1 m² and <1 m²)

Expand to show TLE details & history
Last TLE update: 20 hours ago

TLE from 20 hours ago
0 OPS 4682 DEB
1 38401U 65027DE  26235.36061822  .00000347  00000-0  12051-2 0  9997
2 38401  90.2476  10.0806 0031434  15.7914 344.4178 12.95338072671075
Epoch: 2026-08-23T08:39Z
TLE epoch observation values (Epoch: 2026-08-23T08:39:17.414Z)
Latitude
-0.00005°
Longitude
-91.39974°
Altitude
1,260.096 km
Speed
7.236 km/s
True Right ascension
00h 40m 19s
True Declination
0° 00' 00"
Sunlit
Object was in full shadow at epoch
Visualization orbit readout
Latitude
Unknown
Longitude
Unknown
Altitude
Unknown
Speed
Unknown
Apparent Right ascension
Unknown
Apparent Declination
Unknown
Sunlit
N/A
Visualization observer readout
Local Sidereal Time
19:32:51
Azimuth
Unknown
Elevation
Unknown
Doppler factor
Unknown
Orbital elements
Apogee altitude
1,301.606 km
Perigee altitude
1,253.476 km
Semi-major axis
7,655.678 km
Eccentricity
0.00314
Inclination
90.2476°
RAAN
10.0806°
Arg. of periapsis
15.7914°
True anomaly
344.32067°
Mean anomaly
344.4178°
Eccentric anomaly
344.36927°
Mean motion
3.24017 °/min
Orbital period
111.11 mins
BSTAR
0.0012051
Loading maneuver chart data...
Computing Atmospheric mass density...
Loading historical data...
Loading historical data...
Loading historical data...
Loading historical data...
Loading historical data...
Loading historical data...
Loading historical data...

Documentation

Showing up to 5 results
|